Time,TemperatureF,DewpointF,PressureIn,WindDirection,WindDirectionDegrees,WindSpeedMPH,WindSpeedGustMPH,Humidity,HourlyPrecipIn,Conditions,Clouds,dailyrainin,SolarRadiationWatts/m^2,SoftwareType,DateUTC
2013-02-10 00:04:00,35.2,31.0,29.98,SSE,155,15.0,-999.0,85,-99.99,,,0.00,0,weatherlink.com 1.10,2013-02-10 06:04:00,
2013-02-10 00:19:00,35.3,31.0,29.98,SSE,166,13.0,-999.0,85,-99.99,,,0.00,0,weatherlink.com 1.10,2013-02-10 06:19:00,
2013-02-10 00:34:00,35.3,31.0,29.98,SSE,152,11.0,-999.0,84,-99.99,,,0.00,0,weatherlink.com 1.10,2013-02-10 06:34:00,
2013-02-10 00:49:00,35.3,31.0,29.97,SSE,162,16.0,-999.0,84,-99.99,,,0.00,0,weatherlink.com 1.10,2013-02-10 06:49:00,
2013-02-10 01:04:00,35.3,31.0,29.96,SE,145,18.0,-999.0,85,-99.99,,,0.00,0,weatherlink.com 1.10,2013-02-10 07:04:00,
2013-02-10 01:19:00,35.3,31.0,29.95,SSE,167,19.0,-999.0,85,-99.99,,,0.00,0,weatherlink.com 1.10,2013-02-10 07:19:00,
2013-02-10 01:34:00,35.9,32.0,29.94,South,182,13.0,-999.0,84,-99.99,,,0.00,0,weatherlink.com 1.10,2013-02-10 07:34:00,
2013-02-10 01:49:00,35.9,32.0,29.93,SE,142,17.0,-999.0,85,-99.99,,,0.00,0,weatherlink.com 1.10,2013-02-10 07:49:00,
2013-02-10 02:04:00,35.8,32.0,29.94,SSE,156,17.0,-999.0,85,-99.99,,,0.00,0,weatherlink.com 1.10,2013-02-10 08:04:00,
2013-02-10 02:19:00,35.6,32.0,29.93,SSE,161,11.0,-999.0,87,-99.99,,,0.00,0,weatherlink.com 1.10,2013-02-10 08:19:00,
2013-02-10 02:34:00,35.6,33.0,29.92,South,179,17.0,-999.0,89,-99.99,,,0.00,0,weatherlink.com 1.10,2013-02-10 08:34:00,
2013-02-10 02:50:00,35.6,33.0,29.91,SE,145,20.0,-999.0,90,-99.99,,,0.00,0,weatherlink.com 1.10,2013-02-10 08:50:00,
2013-02-10 03:05:00,35.9,33.0,29.91,SE,146,13.0,-999.0,90,-99.99,,,0.00,0,weatherlink.com 1.10,2013-02-10 09:05:00,
2013-02-10 03:20:00,35.9,33.0,29.89,SE,140,20.0,-999.0,90,-99.99,,,0.02,0,weatherlink.com 1.10,2013-02-10 09:20:00,
2013-02-10 03:35:00,35.6,33.0,29.89,SE,145,18.0,-999.0,91,-99.99,,,0.03,0,weatherlink.com 1.10,2013-02-10 09:35:00,
2013-02-10 03:50:00,35.8,34.0,29.88,SSE,159,19.0,-999.0,92,-99.99,,,0.03,0,weatherlink.com 1.10,2013-02-10 09:50:00,
2013-02-10 04:05:00,35.8,34.0,29.88,SE,144,14.0,-999.0,92,-99.99,,,0.04,0,weatherlink.com 1.10,2013-02-10 10:05:00,
2013-02-10 04:20:00,36.0,34.0,29.87,SSE,152,17.0,-999.0,93,-99.99,,,0.05,0,weatherlink.com 1.10,2013-02-10 10:20:00,
2013-02-10 04:35:00,36.2,34.0,29.87,SE,146,13.0,-999.0,93,-99.99,,,0.05,0,weatherlink.com 1.10,2013-02-10 10:35:00,
2013-02-10 04:50:00,36.0,34.0,29.86,SE,128,7.0,-999.0,93,-99.99,,,0.05,0,weatherlink.com 1.10,2013-02-10 10:50:00,
2013-02-10 05:05:00,36.0,34.0,29.85,ESE,123,10.0,-999.0,93,-99.99,,,0.06,0,weatherlink.com 1.10,2013-02-10 11:05:00,
2013-02-10 05:20:00,36.2,34.0,29.83,SE,135,15.0,-999.0,93,-99.99,,,0.06,0,weatherlink.com 1.10,2013-02-10 11:20:00,
2013-02-10 05:35:00,36.3,35.0,29.82,SE,129,15.0,-999.0,94,-99.99,,,0.06,0,weatherlink.com 1.10,2013-02-10 11:35:00,
2013-02-10 05:50:00,36.2,35.0,29.81,SE,133,18.0,-999.0,94,-99.99,,,0.06,0,weatherlink.com 1.10,2013-02-10 11:50:00,
2013-02-10 06:05:00,36.0,35.0,29.78,ESE,116,13.0,-999.0,94,-99.99,,,0.06,0,weatherlink.com 1.10,2013-02-10 12:05:00,
2013-02-10 06:20:00,36.2,35.0,29.77,SE,140,23.0,-999.0,94,-99.99,,,0.06,0,weatherlink.com 1.10,2013-02-10 12:20:00,
2013-02-10 06:35:00,36.2,35.0,29.77,SE,136,21.0,-999.0,94,-99.99,,,0.06,0,weatherlink.com 1.10,2013-02-10 12:35:00,
2013-02-10 07:05:00,36.5,35.0,29.75,SE,135,19.0,-999.0,94,-99.99,,,0.07,0,weatherlink.com 1.10,2013-02-10 13:05:00,
2013-02-10 07:20:00,36.9,36.0,29.73,SE,128,23.0,-999.0,95,-99.99,,,0.07,0,weatherlink.com 1.10,2013-02-10 13:20:00,
2013-02-10 07:35:00,37.0,36.0,29.73,SE,131,25.0,-999.0,95,-99.99,,,0.07,5,weatherlink.com 1.10,2013-02-10 13:35:00,
2013-02-10 07:50:00,37.3,36.0,29.72,SE,134,25.0,-999.0,95,-99.99,,,0.07,11,weatherlink.com 1.10,2013-02-10 13:50:00,
2013-02-10 08:05:00,37.6,36.0,29.70,ESE,119,19.0,-999.0,94,-99.99,,,0.07,11,weatherlink.com 1.10,2013-02-10 14:05:00,
2013-02-10 08:20:00,37.6,36.0,29.70,SE,132,21.0,-999.0,94,-99.99,,,0.07,9,weatherlink.com 1.10,2013-02-10 14:20:00,
2013-02-10 08:35:00,37.8,36.0,29.70,SE,139,31.0,-999.0,93,-99.99,,,0.07,7,weatherlink.com 1.10,2013-02-10 14:35:00,
2013-02-10 08:50:00,37.9,36.0,29.67,ESE,115,19.0,-999.0,93,-99.99,,,0.07,5,weatherlink.com 1.10,2013-02-10 14:50:00,
2013-02-10 09:05:00,38.2,36.0,29.67,SE,128,22.0,-999.0,93,-99.99,,,0.09,12,weatherlink.com 1.10,2013-02-10 15:05:00,
2013-02-10 09:20:00,38.3,37.0,29.67,SE,140,13.0,-999.0,94,-99.99,,,0.11,21,weatherlink.com 1.10,2013-02-10 15:20:00,
2013-02-10 09:35:00,39.3,38.0,29.65,SE,131,18.0,-999.0,94,-99.99,,,0.13,28,weatherlink.com 1.10,2013-02-10 15:35:00,
2013-02-10 09:50:00,39.8,38.0,29.64,SE,146,27.0,-999.0,94,-99.99,,,0.16,33,weatherlink.com 1.10,2013-02-10 15:50:00,
2013-02-10 10:05:00,40.1,39.0,29.62,SSE,148,28.0,-999.0,94,-99.99,,,0.17,28,weatherlink.com 1.10,2013-02-10 16:05:00,
2013-02-10 10:20:00,40.3,39.0,29.60,SE,144,24.0,-999.0,94,-99.99,,,0.17,77,weatherlink.com 1.10,2013-02-10 16:20:00,
2013-02-10 10:35:00,40.6,39.0,29.59,SE,142,29.0,-999.0,93,-99.99,,,0.17,67,weatherlink.com 1.10,2013-02-10 16:35:00,
2013-02-10 10:50:00,41.1,39.0,29.57,SE,139,26.0,-999.0,93,-99.99,,,0.17,51,weatherlink.com 1.10,2013-02-10 16:50:00,
2013-02-10 11:05:00,41.5,40.0,29.55,SSE,157,19.0,-999.0,93,-99.99,,,0.17,53,weatherlink.com 1.10,2013-02-10 17:05:00,
2013-02-10 11:20:00,41.9,40.0,29.54,SSE,156,25.0,-999.0,93,-99.99,,,0.17,56,weatherlink.com 1.10,2013-02-10 17:20:00,
2013-02-10 11:35:00,42.5,41.0,29.51,SE,144,24.0,-999.0,93,-99.99,,,0.17,111,weatherlink.com 1.10,2013-02-10 17:35:00,
2013-02-10 11:50:00,42.9,41.0,29.50,SE,146,22.0,-999.0,93,-99.99,,,0.18,109,weatherlink.com 1.10,2013-02-10 17:50:00,
2013-02-10 12:05:00,43.3,42.0,29.48,SE,145,29.0,-999.0,93,-99.99,,,0.18,79,weatherlink.com 1.10,2013-02-10 18:05:00,
2013-02-10 12:20:00,43.2,41.0,29.48,SSE,159,33.0,-999.0,92,-99.99,,,0.18,33,weatherlink.com 1.10,2013-02-10 18:20:00,
2013-02-10 12:35:00,43.2,41.0,29.48,SSE,156,22.0,-999.0,93,-99.99,,,0.18,26,weatherlink.com 1.10,2013-02-10 18:35:00,
2013-02-10 12:50:00,43.5,42.0,29.47,SSE,157,29.0,-999.0,93,-99.99,,,0.18,63,weatherlink.com 1.10,2013-02-10 18:50:00,
2013-02-10 13:05:00,43.5,42.0,29.46,SSE,162,23.0,-999.0,94,-99.99,,,0.18,56,weatherlink.com 1.10,2013-02-10 19:05:00,
2013-02-10 13:21:00,43.9,42.0,29.45,South,169,27.0,-999.0,94,-99.99,,,0.18,46,weatherlink.com 1.10,2013-02-10 19:21:00,
2013-02-10 13:36:00,44.1,43.0,29.45,SSE,163,23.0,-999.0,95,-99.99,,,0.18,39,weatherlink.com 1.10,2013-02-10 19:36:00,
2013-02-10 13:51:00,44.6,43.0,29.44,SSE,166,25.0,-999.0,95,-99.99,,,0.18,51,weatherlink.com 1.10,2013-02-10 19:51:00,
2013-02-10 14:06:00,45.1,44.0,29.43,SSE,161,21.0,-999.0,95,-99.99,,,0.18,104,weatherlink.com 1.10,2013-02-10 20:06:00,
2013-02-10 14:21:00,45.7,44.0,29.42,SSE,167,25.0,-999.0,95,-99.99,,,0.18,174,weatherlink.com 1.10,2013-02-10 20:21:00,
2013-02-10 14:36:00,46.0,45.0,29.40,SSE,163,23.0,-999.0,95,-99.99,,,0.18,139,weatherlink.com 1.10,2013-02-10 20:36:00,
2013-02-10 14:51:00,46.5,45.0,29.39,SSE,158,31.0,-999.0,95,-99.99,,,0.18,123,weatherlink.com 1.10,2013-02-10 20:51:00,
2013-02-10 15:06:00,47.0,45.0,29.39,South,180,24.0,-999.0,94,-99.99,,,0.18,62,weatherlink.com 1.10,2013-02-10 21:06:00,
2013-02-10 15:21:00,47.1,45.0,29.39,South,169,31.0,-999.0,93,-99.99,,,0.18,62,weatherlink.com 1.10,2013-02-10 21:21:00,
2013-02-10 15:36:00,47.4,46.0,29.38,South,171,25.0,-999.0,93,-99.99,,,0.18,81,weatherlink.com 1.10,2013-02-10 21:36:00,
2013-02-10 15:51:00,47.9,46.0,29.37,SSE,165,24.0,-999.0,92,-99.99,,,0.18,81,weatherlink.com 1.10,2013-02-10 21:51:00,
2013-02-10 16:06:00,48.0,46.0,29.37,SSE,165,31.0,-999.0,92,-99.99,,,0.18,47,weatherlink.com 1.10,2013-02-10 22:06:00,
2013-02-10 16:21:00,48.2,46.0,29.37,South,186,21.0,-999.0,91,-99.99,,,0.18,32,weatherlink.com 1.10,2013-02-10 22:21:00,
2013-02-10 16:36:00,48.8,46.0,29.37,South,177,24.0,-999.0,91,-99.99,,,0.18,90,weatherlink.com 1.10,2013-02-10 22:36:00,
2013-02-10 16:51:00,48.2,46.0,29.36,SSE,168,29.0,-999.0,90,-99.99,,,0.18,32,weatherlink.com 1.10,2013-02-10 22:51:00,
2013-02-10 17:06:00,47.7,45.0,29.36,South,184,22.0,-999.0,91,-99.99,,,0.18,14,weatherlink.com 1.10,2013-02-10 23:06:00,
2013-02-10 17:21:00,47.3,45.0,29.36,South,170,25.0,-999.0,91,-99.99,,,0.18,7,weatherlink.com 1.10,2013-02-10 23:21:00,
2013-02-10 17:36:00,47.1,45.0,29.37,South,177,30.0,-999.0,92,-99.99,,,0.18,0,weatherlink.com 1.10,2013-02-10 23:36:00,
2013-02-10 17:51:00,47.0,45.0,29.37,SSE,168,16.0,-999.0,92,-99.99,,,0.18,0,weatherlink.com 1.10,2013-02-10 23:51:00,
2013-02-10 18:06:00,45.4,43.0,29.39,South,184,20.0,-999.0,91,-99.99,,,0.18,0,weatherlink.com 1.10,2013-02-11 00:06:00,
2013-02-10 18:21:00,45.5,44.0,29.39,South,180,24.0,-999.0,93,-99.99,,,0.18,0,weatherlink.com 1.10,2013-02-11 00:21:00,
2013-02-10 18:36:00,46.2,44.0,29.40,South,190,27.0,-999.0,92,-99.99,,,0.18,0,weatherlink.com 1.10,2013-02-11 00:36:00,
2013-02-10 18:51:00,46.7,44.0,29.41,SW,216,22.0,-999.0,91,-99.99,,,0.18,0,weatherlink.com 1.10,2013-02-11 00:51:00,
2013-02-10 19:08:00,47.7,44.0,29.42,SW,219,29.0,-999.0,87,-99.99,,,0.18,0,weatherlink.com 1.10,2013-02-11 01:08:00,
2013-02-10 19:21:00,46.5,42.0,29.43,SW,215,25.0,-999.0,85,-99.99,,,0.18,0,weatherlink.com 1.10,2013-02-11 01:21:00,
2013-02-10 19:36:00,45.2,39.0,29.43,WSW,240,21.0,-999.0,80,-99.99,,,0.18,0,weatherlink.com 1.10,2013-02-11 01:36:00,
2013-02-10 19:51:00,46.0,37.0,29.43,WSW,242,31.0,-999.0,71,-99.99,,,0.18,0,weatherlink.com 1.10,2013-02-11 01:51:00,
2013-02-10 20:06:00,45.1,38.0,29.45,SSW,213,23.0,-999.0,75,-99.99,,,0.18,0,weatherlink.com 1.10,2013-02-11 02:06:00,
2013-02-10 20:21:00,45.2,37.0,29.45,WSW,242,29.0,-999.0,72,-99.99,,,0.18,0,weatherlink.com 1.10,2013-02-11 02:21:00,
2013-02-10 20:36:00,43.9,37.0,29.45,WSW,240,15.0,-999.0,76,-99.99,,,0.18,0,weatherlink.com 1.10,2013-02-11 02:36:00,
2013-02-10 20:51:00,43.2,37.0,29.46,SW,228,20.0,-999.0,78,-99.99,,,0.18,0,weatherlink.com 1.10,2013-02-11 02:51:00,
2013-02-10 21:06:00,43.5,36.0,29.46,SW,229,24.0,-999.0,75,-99.99,,,0.18,0,weatherlink.com 1.10,2013-02-11 03:06:00,
2013-02-10 21:21:00,43.6,35.0,29.46,WSW,238,26.0,-999.0,71,-99.99,,,0.18,0,weatherlink.com 1.10,2013-02-11 03:21:00,
2013-02-10 21:36:00,43.1,34.0,29.47,WSW,246,25.0,-999.0,69,-99.99,,,0.18,0,weatherlink.com 1.10,2013-02-11 03:36:00,
2013-02-10 21:51:00,42.6,33.0,29.47,WSW,245,27.0,-999.0,69,-99.99,,,0.18,0,weatherlink.com 1.10,2013-02-11 03:51:00,
2013-02-10 22:06:00,42.2,33.0,29.47,West,265,24.0,-999.0,70,-99.99,,,0.18,0,weatherlink.com 1.10,2013-02-11 04:06:00,
2013-02-10 22:21:00,41.5,33.0,29.48,WSW,247,23.0,-999.0,72,-99.99,,,0.18,0,weatherlink.com 1.10,2013-02-11 04:21:00,
2013-02-10 22:36:00,41.1,33.0,29.48,WSW,251,35.0,-999.0,72,-99.99,,,0.18,0,weatherlink.com 1.10,2013-02-11 04:36:00,
2013-02-10 22:51:00,40.3,32.0,29.48,WSW,255,40.0,-999.0,73,-99.99,,,0.18,0,weatherlink.com 1.10,2013-02-11 04:51:00,
2013-02-10 23:06:00,39.6,32.0,29.49,West,268,33.0,-999.0,74,-99.99,,,0.18,0,weatherlink.com 1.10,2013-02-11 05:06:00,
2013-02-10 23:21:00,39.1,32.0,29.50,West,259,25.0,-999.0,76,-99.99,,,0.18,0,weatherlink.com 1.10,2013-02-11 05:21:00,
2013-02-10 23:37:00,38.5,32.0,29.50,West,265,26.0,-999.0,77,-99.99,,,0.18,0,weatherlink.com 1.10,2013-02-11 05:37:00,
2013-02-10 23:51:00,38.2,32.0,29.52,WSW,244,28.0,-999.0,77,-99.99,,,0.18,0,weatherlink.com 1.10,2013-02-11 05:51:00,